JASON 
1 26997U 01055A   03021.95490438 -.00000061  00000-0  00000-0 0  2465
2 26997  66.0418 247.0996 0007137 266.9617  93.0582 12.80930249 52554
BADR B 
1 27003U 01056C   03021.91602353  .00000144  00000-0  21472-3 0  2473
2 27003  99.5916 261.3811 0020208 343.5426  16.5062 13.70032290 55764
MAROC-TUBSAT
1 27004U 01056D   03021.93087123  .00000144  00000-0  21472-3 0  2052
2 27004  99.5909 261.3470 0019869 344.1748  15.8774 13.69977717 55754
ENVISAT 
1 27386U 02009A   03022.43930043 -.00000262  00000-0 -81027-4 0  8689
2 27386  98.5487  91.3821 0000856  84.5436 275.5860 14.32242837 46865
SPOT 5 
1 27421U 02021A   03022.42400177  .00000161  00000-0  96089-4 0  9111
2 27421  98.7282  99.3199 0000689  59.8992 300.2247 14.20022929 37389
AQUA 
1 27424U 02022A   03021.93026951  .00001339  00000-0  30695-3 0  2700
2 27424  98.1974 323.9333 0001767 100.7713 259.3682 14.57130759 38250
ALSAT 1 
1 27559U 02054A   03022.52824382  .00000571  00000-0  14657-3 0  1722
2 27559  98.2384 271.3295 0042048 267.1031  92.5354 14.53419625  8029
ADEOS II 
1 27597U 02056A   03021.77577455  .00000422  00000-0  19641-3 0   551
2 27597  98.7282  95.9130 0000161 322.0007  38.1160 14.25776194  5524
ICESAT 
1 27642U 03002A   03021.84791254 -.00002268  00000-0 -21401-3 0   152
2 27642  94.0085 185.5224 0010987 199.4818 160.6010 14.93547263  1314
SARSAT 4 NOA
1 19531U 88089A   03021.92537139  .00000252  00000-0  15456-3 0  4759
2 19531  98.9051 103.3946 0010922 282.1255  77.8693 14.14524452738895
COSPAS 4 NAD
1 20103U 89050A   03021.82466850  .00000097  00000-0  86771-4 0  6304
2 20103  82.9606 131.3064 0036756 178.2578 181.8710 13.74198283679578
GOES 8 
1 23051U 94022A   03021.37144942 -.00000240  00000-0  00000+0 0  5709
2 23051   0.2308 105.6780 0002388 196.5117 236.1092  1.00257460 39521
SARSAT 6 NOA
1 23455U 94089A   03021.93456809  .00000268  00000-0  16790-3 0  4974
2 23455  99.1879  39.7746 0008799 310.5705  49.4699 14.13287545415577
GOES 9 
1 23581U 95025A   03021.36960492  .00000109  00000-0  00000+0 0  4832
2 23581   0.3472 277.6132 0009812 231.6430 329.9582  1.00030644 28088
GOES 10 
1 24786U 97019A   03022.22568604  .00000091  00000-0  00000+0 0  5145
2 24786   0.0721 109.8473 0003244 211.1164 106.5184  1.00282855 21065
SARSAT 7 NOA
1 25338U 98030A   03021.98890094  .00000296  00000-0  14683-3 0  9840
2 25338  98.5505  44.8859 0011245  40.4915 319.7105 14.24232549243875
COSPAS 9 NAD
1 26384U 00033A   03022.53472351  .00001264  00000-0  25598-3 0  7124
2 26384  98.2543 342.4056 0015719 316.9583  43.0387 14.62942333136976
SARSAT 8 NOA
1 26536U 00055A   03021.80238780  .00000085  00000-0  70731-4 0  1755
2 26536  98.9001 330.2967 0011122  28.3978 331.7788 14.11887450120239
NOAA 17 
1 27453U 02032A   03021.93787422  .00000361  00000-0  17897-3 0  2792
2 27453  98.7613  93.2877 0012650  77.9641 282.2953 14.23276753 30038
NADEZHDA 7 
1 27534U 02046A   03021.96604481  .00000067  00000-0  57309-4 0  2003
2 27534  82.9346 163.5010 0035702 318.6308  41.2144 13.72420054 16109
LANDSAT 4 
1 13367U 82072A   03022.11495873  .00002554  00000-0  21976-3 0  4252
2 13367  98.2172 122.3527 0007875 192.5016 167.5934 14.98348875 93749
TDRS 1 
1 13969U 83026B   03021.30641962 -.00000293  00000-0  10000-3 0  5876
2 13969  11.4795  24.6711 0002831 264.3350 252.7200  1.00269009 45548
LANDSAT 5 
1 14780U 84021A   03022.19075715  .00000568  00000-0  13636-3 0  5938
2 14780  98.2713  87.2982 0003024 134.0436 226.0998 14.57093350  4915
ERBS 
1 15354U 84108B   03021.62398124  .00002330  00000-0  14837-3 0  3695
2 15354  56.9901  68.3545 0042163 111.3177 249.2373 15.12003833997807
TDRS 3 
1 19548U 88091B   03021.88443037 -.00000186  00000-0  10000-3 0  9457
2 19548   7.1246  59.0847 0002946 218.7370 246.2575  1.00271291 39692
TDRS 4 
1 19883U 89021B   03021.94019098 -.00000263  00000-0  10000-3 0  1959
2 19883   5.0327  74.7992 0003840 215.5910 127.9405  1.00264419223264
HST 
1 20580U 90037B   03021.97654544  .00002751  00000-0  21586-3 0  3044
2 20580  28.4653 217.3070 0004036 339.1015 147.0296 14.97704239498499
TDRS 5 
1 21639U 91054B   03018.70922065  .00000092  00000-0  10000-3 0  9808
2 21639   4.2046  80.1699 0002189 204.7139 273.8312  1.00268571 41986
UARS 
1 21701U 91063B   03021.69128571  .00001106  00000-0  10088-3 0  8059
2 21701  56.9792 144.8794 0005715 115.3623 244.7953 15.02798822621521
TOPEX/POSEID
1 22076U 92052A   03021.41309936 -.00000038  00000-0  10000-3 0  5662
2 22076  66.0403 248.5174 0007614 267.4397  92.5824 12.80930796488695
TDRS 6 
1 22314U 93003B   03016.25563080 -.00000265  00000-0  10000-3 0  4438
2 22314   3.4467  84.5207 0002587 114.3856 321.3741  1.00267215 36682
TDRS 7 
1 23613U 95035B   03018.28382630  .00000105  00000-0  10000-3 0  2747
2 23613   5.7232  69.9616 0002390 222.6467 115.6125  1.00278497 27509
XTE 
1 23757U 95074A   03022.47270081  .00007280  00000-0  32842-3 0  2391
2 23757  22.9817  58.3778 0008351   0.8997 359.1598 15.17894739388624
TRMM 
1 25063U 97074A   03022.15233127  .00026642  00000-0  37211-3 0  9542
2 25063  34.9746 322.7974 0000649 238.4928 121.5636 15.55856437295683
ETS 7 
1 25064U 97074B   03022.20205060  .00006381  00000-0  32680-3 0  1190
2 25064  34.9638 324.5687 0004594  22.6025 337.4691 15.15926951284535
ISS ZARYA 
1 25544U 98067A   03022.48882753  .00026916  00000-0  33733-3 0  6119
2 25544  51.6370  32.1197 0005728  65.0173  67.1711 15.59542344238278
LANDSAT 7 
1 25682U 99020A   03022.23618357  .00000550  00000-0  13214-3 0  7605
2 25682  98.2239  91.3676 0001626  66.7601 293.3768 14.57107597200614
TERRA 
1 25994U 99068A   03022.25702592  .00000681  00000-0  16117-3 0  6261
2 25994  98.2049  98.8954 0001019  85.8083 274.3242 14.57100168164692
TDRS 8 
1 26388U 00034A   03018.25245997  .00000123  00000-0  00000-0 0  5700
2 26388   4.9156 281.7513 0002786 351.6461 124.1090  1.00279501  9450
TDRS 9 
1 27389U 02011A   03021.27522014  .00000141  00000-0  00000+0 0  2035
2 27389   8.1831 287.3470 0007966  37.4274 105.1110  1.00281789  4726
TDRS 10 
1 27566U 02055A   03022.37205910  .00000137  00000-0  00000+0 0   566
2 27566   6.9197 297.2067 0004916 351.2720 176.5745  1.00284214   561
LES 9 
1 08747U 76023B   03018.59741304 -.00000056  00000-0  10000-3 0  9052
2 08747  11.1330 217.4476 0024151 229.5870 140.5848  1.00276032 43945
MARISAT 2 
1 09478U 76101A   03015.11309029 -.00000243  00000-0  10000-3 0  2455
2 09478  13.1958  12.5619 0001626 269.9667 198.4350  1.00268368 39434
COMSTAR 4 
1 12309U 81018A   03021.98678409 -.00000062  00000-0  00000+0 0  3183
2 12309  11.6094  27.7248 0022167 167.5220 351.7529  1.00268546 81743
SATCOM 5 
1 13631U 82105A   03019.10046523 -.00000090  00000-0  10000-3 0  7873
2 13631   8.4269  48.7582 0004795 205.3261 154.6945  1.00271940 40645
TDRS 1 
1 13969U 83026B   03021.30641962 -.00000293  00000-0  10000-3 0  5876
2 13969  11.4795  24.6711 0002831 264.3350 252.7200  1.00269009 45548
SBS 4 
1 15235U 84093B   03022.49520676 -.00000246  00000-0  10000-3 0  6091
2 15235   7.1920  57.4853 0001272 254.2588 270.8746  1.00267786 44183
NATO 3D 
1 15391U 84115A   03016.26282987 -.00000143  00000-0  10000-3 0   480
2 15391   5.2040  50.4429 0000469 181.0746 319.1723  1.00270903 66574
NAHUEL I1 AN
1 15642U 85028B   03020.06256797 -.00000276  00000-0  10000-3 0  5253
2 15642   4.7134  78.3800 0001126 213.4565 146.4952  1.00270164 70886
GSTAR 1 
1 15677U 85035A   03015.17840217 -.00000078  00000-0  10000-3 0  3394
2 15677   5.2428  73.4444 0007388 229.5649 130.2695  1.00272059 39462
INTELSAT 511
1 15873U 85055A   03021.92429523 -.00000219  00000-0  10000-3 0  6050
2 15873   7.2940  57.5639 0003594 233.4888 133.0107  1.00268858 38970
MORELOS 2 
1 16274U 85109B   03019.42567376 -.00000057  00000-0  00000+0 0  3598
2 16274   3.6367  82.9478 0001556 226.6117 212.8937  1.00272931 52157
BRASILSAT 2 
1 16650U 86026B   03020.22910898 -.00000277  00000-0  10000-3 0   378
2 16650   5.0542  74.0836 0000720 227.7387 196.8107  1.00269208 41521
GOES 7 
1 17561U 87022A   03013.52827387  .00000116  00000-0  10000-3 0  8102
2 17561   7.5470  55.7264 0004064 288.6625 149.4031  1.00317770 41389
OPTUS A3 AUS
1 18350U 87078A   03019.03069613 -.00000071  00000-0  10000-3 0  1049
2 18350   5.0360  70.7190 0001770 261.4148 320.9216  1.00272344 55699
NSS 513 
1 19121U 88040A   03021.67418728  .00000069  00000-0  10000-3 0  1512
2 19121   5.8032  69.3481 0003134 228.0380 249.0364  1.00272952 30299
GSTAR 3 
1 19483U 88081A   03019.07447769 -.00000098  00000-0  10000-3 0  3982
2 19483  11.0647  39.7646 0005923 293.9172  66.0825  1.00272174 48882
TDRS 3 
1 19548U 88091B   03021.88443037 -.00000186  00000-0  10000-3 0  9457
2 19548   7.1246  59.0847 0002946 218.7370 246.2575  1.00271291 39692
ASTRA 1A 
1 19688U 88109B   03019.87686910  .00000043  00000-0  10000-3 0  5599
2 19688   1.3135  95.4233 0004167 190.0317 154.2617  1.00272000 31891
COLUMBIA 515
1 19772U 89006A   03020.87240095 -.00000140  00000-0  00000+0 0   816
2 19772   4.3963  78.6444 0023939 238.7735 120.9616  0.99108379 39921
TDRS 4 
1 19883U 89021B   03021.94019098 -.00000263  00000-0  10000-3 0  1959
2 19883   5.0327  74.7992 0003840 215.5910 127.9405  1.00264419223264
SIRIUS MARCO
1 20193U 89067A   03021.89655670 -.00000101  00000-0  10000-3 0  7723
2 20193   2.8481  86.8280 0002172 163.3774 180.4401  1.00271413 32377
INTELSAT 602
1 20315U 89087A   03020.80132942  .00000161  00000-0  00000+0 0  7936
2 20315   1.0136  93.9588 0000584 296.3394  50.8018  1.00272251 46269
